Wind_Speed
25 24 24 24 23 23 22 21 21 20 20 19 19 18 18 18 17 17 17 17 17 17 17 17 17 17 17 17 16 16 16 16 17 17 18 18 18 18 18 18 18 19 19 19 19 19 19 18 18 18 18 18 19 19 19 19 19 20 20 21 22 23 24 24 25 26 27 27 26 22 17 15 15 15 17 19 22 24 24 23 23 23 23 21 19 17 17 16
26 26 26 26 25 25 24 23 22 22 21 21 20 20 20 20 19 19 19 19 19 19 19 19 19 19 19 19 18 18 18 19 19 19 20 20 20 20 20 20 21 21 21 21 20 20 20 20 20 20 20 20 20 21 21 20 21 21 22 23 24 24 25 26 27 28 28 27 25 20 15 14 15 16 18 20 23 25 25 24 24 24 23 21 20 19 18 17
28 28 28 28 28 27 26 25 24 24 23 23 22 22 22 22 22 21 21 21 21 21 21 21 21 21 21 20 20 20 20 21 21 21 21 22 22 22 23 23 23 23 23 22 21 21 21 21 21 21 21 21 21 22 22 21 22 23 24 25 26 27 28 28 28 28 27 25 22 18 15 15 17 19 20 21 23 26 26 25 25 25 24 22 20 19 19 18
31 30 30 30 30 29 28 27 27 26 25 25 25 25 24 24 24 24 23 23 24 24 23 23 23 22 22 22 21 22 22 23 24 23 23 24 25 25 25 25 25 24 23 23 22 22 21 22 22 22 22 22 22 22 23 23 24 26 26 27 28 29 30 29 28 27 25 22 19 17 16 18 20 22 22 22 24 26 27 27 26 26 25 24 23 21 20 19
33 33 33 32 32 31 30 30 29 28 28 28 27 27 27 26 26 26 26 26 26 25 25 25 24 24 24 23 23 24 24 25 26 25 26 27 27 27 27 26 25 25 24 23 22 22 22 23 23 23 23 23 23 24 24 25 26 28 29 30 29 29 29 27 25 24 22 20 19 18 18 21 23 25 26 25 24 25 27 29 27 26 25 24 24 23 22 21
35 35 35 34 34 33 32 32 31 31 30 30 30 29 29 29 28 28 28 28 27 27 27 26 26 26 26 25 25 25 26 28 28 27 28 29 29 28 28 27 26 25 25 24 23 23 23 24 24 24 24 25 26 26 27 28 29 30 31 30 28 26 26 24 23 23 21 20 20 20 21 24 25 27 28 28 27 26 27 29 29 28 27 25 25 25 24 23
36 36 36 36 35 35 34 34 34 33 33 32 32 31 31 31 31 30 30 30 29 29 28 28 28 28 27 27 27 27 28 31 30 29 30 31 30 29 28 27 26 26 25 25 25 25 25 26 26 27 28 29 29 30 31 31 30 29 28 27 24 23 23 23 23 23 22 21 22 22 25 27 26 27 29 30 29 28 29 29 29 29 28 27 26 25 25 24
38 37 37 37 37 36 36 36 35 35 34 34 34 34 33 33 32 32 32 31 31 31 30 30 30 30 29 29 29 29 30 33 33 31 31 30 29 29 28 27 26 26 26 27 27 28 28 29 30 31 32 32 32 32 32 31 28 26 25 23 23 22 22 23 24 25 24 23 25 26 27 29 28 27 30 30 29 29 30 29 29 28 28 28 27 26 25 25
39 39 39 38 38 38 38 37 37 37 36 36 36 35 35 34 34 33 33 33 33 32 32 32 32 32 31 31 31 31 33 34 33 31 30 29 29 28 28 28 28 28 29 30 31 31 32 33 34 34 34 33 32 31 30 28 26 24 22 21 22 23 23 24 25 27 26 26 28 28 29 30 29 28 30 30 28 29 30 30 29 28 28 29 28 28 27 27
41 40 40 40 40 40 39 39 39 38 38 37 37 37 36 36 36 35 35 35 35 35 35 34 34 34 34 34 33 32 34 34 32 30 30 29 29 30 30 30 31 32 32 33 34 35 35 36 35 35 34 32 30 28 27 26 25 24 24 23 24 25 25 27 28 29 29 30 31 30 29 30 29 29 31 30 28 28 30 31 30 29 29 29 29 30 29 28
43 42 42 42 42 41 41 40 40 40 39 39 39 38 38 38 38 38 37 37 37 37 37 36 36 36 36 35 34 33 33 33 31 31 31 31 32 32 33 34 35 35 36 36 37 36 36 35 34 33 31 29 28 28 28 28 28 27 27 26 27 27 28 30 31 30 31 32 33 31 30 29 29 29 31 30 28 29 31 31 31 31 30 30 30 31 30 29
45 45 44 44 44 43 43 42 42 42 41 41 41 41 40 40 40 40 40 39 39 39 39 38 38 38 37 35 33 33 34 33 33 34 34 34 35 36 36 37 38 38 37 37 36 35 34 33 32 31 31 30 30 31 31 31 30 30 30 29 30 30 30 32 32 31 32 33 34 33 30 28 27 29 30 31 29 29 31 31 31 30 30 30 31 31 31 30
47 47 47 46 46 45 45 45 44 44 43 43 43 43 42 42 42 42 42 41 41 41 40 40 39 38 37 35 34 35 35 35 36 37 37 37 38 38 38 38 38 37 36 35 34 33 33 33 33 33 33 33 33 34 34 33 33 32 33 32 31 31 31 32 33 32 33 34 34 34 32 27 25 29 31 30 30 30 30 30 29 28 29 29 30 30 30 31
48 48 47 47 47 47 47 46 46 46 45 45 45 45 44 44 44 43 43 43 42 41 40 40 39 38 38 36 36 37 38 38 39 39 39 39 39 39 38 37 36 35 35 34 34 35 35 36 36 36 36 36 36 36 36 35 34 33 33 33 33 32 31 31 32 32 33 34 34 35 34 27 23 27 31 30 31 30 29 28 27 27 28 29 29 30 30 31
49 49 48 48 48 47 47 47 47 46 46 46 45 45 45 44 44 44 43 42 42 41 41 40 40 40 40 39 39 39 40 40 40 40 40 39 38 37 37 36 36 36 36 37 37 38 39 39 39 39 38 37 37 36 36 35 34 34 35 35 35 34 32 30 30 32 33 35 35 35 35 29 24 27 30 31 31 30 28 27 27 28 29 30 30 30 30 31
50 50 50 49 49 49 48 48 47 47 46 46 46 45 45 45 44 44 43 43 43 43 43 43 43 43 43 41 41 41 40 41 41 39 38 37 37 37 37 38 38 39 40 40 40 40 40 40 40 39 38 38 37 36 36 36 35 35 37 37 35 34 33 30 30 32 34 36 36 36 35 31 27 28 31 32 31 29 28 28 29 29 30 31 31 30 30 30
50 50 50 49 49 50 50 49 49 49 48 48 48 47 47 47 46 46 46 46 46 45 46 46 45 46 45 43 41 40 40 40 39 38 37 37 38 39 39 40 41 42 42 42 41 40 40 40 39 39 39 37 37 37 38 38 37 37 38 37 36 35 35 32 30 31 34 36 37 36 34 32 30 30 32 32 31 29 28 29 30 31 31 31 31 30 29 29
51 51 50 50 49 49 49 49 49 49 49 49 50 50 49 49 49 48 48 48 47 47 47 47 46 46 45 42 40 39 39 39 38 39 39 40 41 42 42 42 42 42 42 41 41 40 41 40 40 40 38 36 37 38 40 40 39 39 39 38 38 37 36 34 32 33 35 36 36 36 35 33 31 31 32 32 31 30 30 30 31 31 31 30 29 29 28 28
51 51 51 51 50 50 50 49 49 49 49 49 49 49 49 49 49 48 47 47 46 45 46 46 45 45 43 40 40 40 40 40 41 42 42 43 43 43 43 42 42 41 41 41 41 41 41 41 41 40 37 36 38 40 41 41 41 40 40 39 39 39 37 35 35 36 37 37 35 35 35 33 32 32 33 32 31 31 31 31 30 29 28 27 27 27 27 27
50 50 50 51 51 51 51 51 50 50 49 49 49 49 48 48 48 47 46 46 45 44 45 45 44 44 43 42 42 43 43 44 44 43 43 43 42 43 42 42 41 41 40 40 41 41 41 42 42 40 38 39 41 42 42 42 42 42 41 41 41 40 38 37 38 39 39 39 36 34 34 33 32 33 33 32 31 31 31 30 28 26 25 25 25 26 26 27
51 51 51 51 51 51 51 51 51 51 51 51 51 50 49 48 48 48 47 46 46 46 46 47 47 46 45 45 45 45 45 45 44 42 42 42 42 42 42 41 41 40 39 40 42 42 42 43 43 41 41 42 42 42 41 41 41 42 42 42 42 41 40 39 40 40 40 40 38 36 35 33 32 33 31 30 29 29 29 28 26 25 24 23 23 24 24 25
52 52 52 52 51 51 51 51 52 52 52 53 52 52 51 51 51 51 51 50 49 49 48 48 48 47 45 46 46 45 45 44 42 41 42 42 42 41 41 41 40 40 40 42 42 43 45 45 44 43 44 44 43 42 41 41 41 41 41 41 41 40 40 40 40 40 40 40 39 38 36 33 32 31 29 28 27 27 28 26 25 24 23 23 23 24 25 25
54 53 53 53 53 53 53 52 52 52 53 53 53 53 53 53 53 53 53 53 51 50 50 49 49 47 46 46 46 46 46 44 42 42 41 42 41 41 41 41 41 42 43 43 43 45 46 46 45 45 45 45 43 42 41 41 40 40 40 41 40 39 40 41 40 39 39 39 38 37 36 33 31 30 28 26 26 27 27 25 24 24 25 26 27 28 29 30
56 55 55 55 55 55 54 54 53 53 54 54 54 54 54 53 54 54 55 55 53 50 49 49 49 48 46 46 46 46 46 44 43 42 41 41 42 42 43 43 44 44 44 43 44 46 47 46 45 45 45 44 43 41 40 39 39 39 39 39 39 38 39 40 39 38 38 38 37 36 36 33 29 29 27 26 27 27 27 26 26 27 28 29 31 32 33 34
57 57 57 56 57 56 56 55 54 54 54 54 54 54 54 54 55 55 55 56 55 51 49 49 49 48 47 47 46 46 46 45 44 43 42 42 43 44 44 44 45 45 44 45 47 48 46 44 45 45 43 42 41 39 38 38 38 37 36 36 37 37 37 37 38 37 37 37 36 36 37 33 29 28 26 26 29 30 29 28 29 30 31 32 34 35 36 37
58 58 58 58 58 58 57 56 55 56 56 56 56 55 56 56 56 56 56 57 57 52 49 49 49 50 48 47 46 46 47 47 44 44 44 44 44 45 46 46 46 46 46 48 50 50 45 42 42 42 40 39 38 37 37 37 37 34 33 34 35 36 36 36 37 37 37 36 36 35 35 34 33 30 27 28 31 32 31 32 33 34 35 36 37 37 37 37
60 60 59 59 60 60 59 58 58 58 58 58 58 58 58 57 57 57 55 58 60 55 52 51 50 50 49 48 47 47 49 48 45 45 45 45 45 46 47 47 47 48 49 51 50 46 41 40 39 38 37 37 36 36 36 36 35 33 32 33 34 34 34 35 35 36 37 36 36 34 33 35 37 34 32 33 34 35 35 36 37 37 38 39 40 40 39 39
62 61 61 61 62 61 61 60 60 60 61 61 61 60 60 58 57 57 55 59 62 59 56 55 52 51 50 50 49 49 50 50 48 48 47 47 47 47 48 49 49 50 51 49 45 41 39 38 37 36 36 35 35 36 35 35 34 33 32 33 33 33 34 35 35 36 37 37 38 35 33 36 40 39 39 39 38 39 39 40 40 41 42 42 42 42 42 42
64 63 63 63 64 64 64 63 63 63 63 63 63 63 61 59 58 57 57 60 63 61 60 58 55 52 52 52 52 52 52 51 51 50 49 49 49 49 50 51 51 51 49 46 42 39 38 37 36 36 35 35 36 36 36 35 34 33 32 32 33 34 34 35 36 37 38 40 39 36 34 38 43 44 45 45 43 43 44 44 44 44 45 45 44 45 45 45
66 65 65 66 67 67 67 66 65 65 64 64 65 64 63 62 60 59 60 63 63 63 62 60 57 55 54 54 54 53 53 52 52 52 51 51 51 51 52 52 51 49 46 42 40 39 38 38 37 36 35 36 36 36 36 35 34 33 32 32 33 34 36 37 38 39 40 41 41 39 39 42 46 49 49 48 48 47 47 48 48 48 48 48 48 49 48 48
67 67 68 69 70 71 70 69 67 66 66 66 66 66 65 63 62 62 64 64 63 63 63 61 60 58 57 56 54 53 52 52 52 52 52 52 52 53 52 50 48 45 43 41 39 39 38 38 37 37 36 36 35 35 34 34 33 33 32 33 34 36 37 38 39 39 41 42 43 43 45 46 49 50 50 50 50 50 50 50 50 51 51 51 51 51 51 50
65 62 61 60 61 63 65 67 68 67 67 67 67 68 67 66 67 68 67 65 64 64 62 61 61 60 58 56 54 52 51 51 52 52 52 52 53 52 50 47 44 43 42 40 39 39 40 39 38 37 36 35 34 33 33 33 34 34 35 35 35 37 38 39 40 40 41 43 44 46 48 50 51 51 51 51 51 51 51 51 51 51 52 52 52 52 51 50
58 55 53 52 52 53 55 58 62 65 65 65 65 64 64 68 69 67 67 66 65 64 63 62 62 60 58 56 54 52 52 52 52 53 53 53 53 51 48 46 44 42 42 41 41 41 41 40 38 37 36 35 34 34 33 34 35 36 36 36 37 38 40 41 41 42 44 45 46 48 51 52 53 52 52 51 51 51 51 51 51 52 52 52 52 52 51 51
56 54 52 52 52 50 49 50 53 56 58 60 62 60 63 67 64 61 65 65 63 63 62 61 59 57 55 54 53 53 54 54 54 54 54 53 51 48 46 45 44 43 43 43 42 42 40 39 38 38 37 36 36 36 36 37 37 37 37 38 39 40 41 43 44 46 48 49 51 52 53 54 53 53 53 53 53 52 52 52 52 52 52 52 52 52 51 51
56 56 53 52 52 49 47 47 47 49 52 55 59 61 62 62 58 59 62 61 58 57 55 54 53 52 53 53 53 54 54 53 52 52 51 50 48 47 45 45 45 44 44 43 42 41 41 40 39 38 38 38 38 38 39 39 39 39 39 40 41 41 42 44 46 49 51 53 55 55 56 55 54 54 54 54 54 53 53 53 53 53 53 52 52 51 51 51
52 53 52 51 51 48 46 46 46 47 49 50 54 58 56 53 53 54 54 52 52 51 48 47 46 47 49 51 51 52 51 50 49 49 49 48 47 47 46 45 44 44 43 42 42 43 43 42 40 39 39 39 39 40 40 40 41 41 40 41 41 42 44 46 49 51 53 56 58 58 57 57 56 56 55 54 54 54 54 54 54 54 53 52 52 52 52 53
49 50 52 51 49 49 48 47 47 49 51 51 54 55 51 50 51 51 50 50 50 48 46 45 45 46 48 50 51 50 49 49 48 47 47 47 47 47 45 43 43 43 42 41 42 42 42 43 42 41 40 39 39 40 40 41 41 41 41 41 42 45 47 49 51 53 55 58 59 59 58 57 57 56 55 54 53 54 54 54 53 53 53 53 53 53 54 54
52 54 55 55 51 50 50 49 50 52 53 55 56 56 54 54 54 53 53 53 52 50 48 46 46 47 48 50 50 48 47 48 49 49 48 47 47 46 43 42 42 42 42 41 41 42 42 43 44 43 42 40 40 40 41 41 41 41 42 44 46 48 50 51 52 54 56 58 59 59 58 58 57 55 53 53 53 54 54 53 53 54 54 54 55 56 56 56
51 56 59 59 57 55 54 54 55 56 58 60 60 60 58 56 55 55 54 54 54 53 51 48 46 45 45 47 46 46 47 50 52 52 51 49 48 47 44 43 43 42 42 41 42 42 42 43 44 44 43 42 42 43 43 42 42 43 45 47 49 50 51 51 52 53 55 56 58 58 58 58 56 54 54 54 54 55 55 54 54 55 55 57 57 57 57 57
45 52 59 61 60 59 59 61 62 62 63 63 62 62 61 57 55 55 54 54 55 54 52 49 46 44 45 46 47 48 50 52 53 53 52 50 48 47 45 44 43 42 42 42 43 43 43 45 46 46 46 46 46 46 45 44 45 46 47 49 49 49 50 50 51 52 53 55 56 56 57 59 57 56 57 56 54 55 56 56 56 57 58 59 58 58 59 60
44 47 52 56 58 58 59 62 65 66 66 64 63 64 63 61 59 57 57 56 55 55 53 51 49 49 50 51 53 53 53 53 52 51 50 49 48 46 45 44 43 43 44 44 45 45 46 47 48 49 50 49 48 47 47 47 48 47 47 48 48 48 49 51 52 52 52 54 54 55 58 60 58 58 59 58 56 56 58 58 59 59 60 60 59 60 60 61
49 47 46 49 53 55 57 59 61 63 64 64 63 62 61 60 59 59 59 58 58 58 57 57 57 57 57 57 55 53 52 51 50 49 50 50 49 48 47 46 46 46 46 47 48 48 49 49 50 51 51 50 50 50 49 49 48 48 48 48 47 49 49 51 53 52 52 54 55 57 60 59 56 56 57 59 59 59 60 61 62 62 61 61 61 61 62 62
53 51 48 49 51 52 54 56 56 57 57 57 57 58 58 58 58 58 58 60 63 65 66 66 65 62 60 58 55 53 52 51 50 50 51 51 50 50 49 49 48 49 49 49 50 49 49 49 49 50 50 50 51 51 51 51 50 49 49 48 48 49 50 52 54 54 55 57 57 60 62 59 55 54 56 60 63 62 61 62 63 63 63 63 64 64 64 65
56 54 53 52 52 51 52 53 53 53 53 52 52 53 54 55 56 56 58 61 66 68 68 67 65 61 59 58 57 55 54 53 53 52 52 53 52 51 51 50 50 51 51 50 49 49 48 49 48 49 50 51 52 52 52 51 50 50 50 50 50 50 51 53 54 56 59 58 58 62 64 60 56 56 59 63 64 63 63 64 64 64 65 65 66 66 67 68
56 56 55 53 52 51 50 50 52 54 52 51 51 51 53 55 56 58 61 64 66 67 66 65 63 60 59 58 58 57 57 56 56 56 55 55 54 53 52 52 52 51 51 50 50 50 50 50 50 51 52 53 54 53 52 50 50 51 51 51 50 51 53 54 56 58 61 61 60 63 64 61 57 57 61 64 63 63 64 65 65 65 66 67 67 68 69 69
53 54 54 54 54 53 51 50 53 55 53 52 52 53 55 57 58 59 62 63 64 64 64 64 62 60 59 59 58 58 57 56 56 56 55 54 54 53 53 52 52 52 51 52 52 53 53 53 53 54 54 55 55 54 52 51 51 52 51 50 51 52 54 56 59 60 61 64 64 61 62 64 59 58 62 63 63 64 65 65 65 66 67 68 69 70 71 70
53 53 53 54 55 55 53 52 54 56 55 54 54 55 58 60 60 61 62 62 63 63 63 63 62 60 59 58 57 56 54 53 53 54 54 54 53 53 53 53 53 53 53 53 54 54 54 55 55 54 55 55 54 53 53 52 52 51 51 50 51 53 56 58 60 60 61 65 65 60 62 66 61 58 63 65 64 65 65 65 66 67 69 70 70 71 72 71
52 51 52 54 56 57 57 57 58 59 58 58 57 57 58 60 61 63 64 64 64 64 63 63 61 60 58 57 56 55 54 54 54 54 54 54 54 54 54 53 53 53 52 52 52 52 54 55 54 54 54 53 53 53 53 52 53 52 51 51 51 54 58 60 60 60 62 66 65 62 64 66 62 61 64 64 64 65 65 66 68 68 70 71 71 71 71 69
53 49 50 54 57 59 59 61 62 62 62 61 60 59 58 58 60 62 64 65 64 63 63 62 60 58 57 56 56 56 56 56 56 56 55 55 54 54 54 53 52 51 51 51 51 51 53 54 53 53 54 53 53 54 54 54 54 53 52 51 52 56 60 61 60 61 63 65 64 63 65 65 62 64 65 63 64 66 66 67 68 68 69 70 70 70 68 67
55 52 52 55 57 58 59 60 61 62 63 63 62 60 59 59 59 59 61 62 61 60 59 59 58 57 57 57 58 57 57 58 58 57 55 55 54 54 53 52 51 50 50 50 51 51 53 54 54 54 55 55 54 56 56 55 56 56 54 53 55 59 61 61 61 62 64 65 64 64 67 66 63 63 64 63 65 67 66 65 66 67 68 68 68 67 65 65
57 55 55 58 59 60 60 60 60 61 61 61 61 60 60 60 60 60 61 61 61 61 60 59 59 59 60 60 60 59 58 58 58 57 57 56 55 54 53 52 51 51 50 50 52 52 53 55 55 56 58 57 55 57 59 58 59 59 56 55 58 60 60 61 61 62 63 64 65 66 68 67 63 63 65 65 65 64 63 63 64 66 66 65 64 63 63 63
60 60 59 60 61 62 62 62 63 62 61 60 59 59 60 60 61 62 62 62 62 62 62 61 61 62 62 62 61 59 59 59 58 58 57 56 55 54 53 53 52 52 52 52 53 54 55 56 56 57 60 60 58 59 61 60 62 62 57 55 57 58 59 61 61 61 62 64 65 67 67 65 64 65 66 65 63 62 62 62 63 64 63 63 62 62 62 62
Wind_Direction
217 217 217 216 216 216 216 217 219 222 224 226 228 229 231 232 235 238 241 244 247 250 252 254 256 258 260 262 265 267 270 273 276 279 282 283 284 286 288 289 290 291 292 292 291 290 288 287 285 284 284 284 284 285 285 287 288 289 290 290 292 294 295 297 299 301 301 300 301 301 298 298 300 302 305 310 310 308 308 310 309 305 303 302 299 297 297 301
221 221 220 220 219 219 221 223 225 227 229 231 232 234 235 237 239 241 244 246 249 252 254 256 257 258 260 262 264 266 269 272 275 277 280 282 284 285 287 289 290 290 291 290 288 287 287 286 284 284 284 284 284 285 286 288 289 290 291 292 293 295 295 296 298 299 299 298 298 297 294 293 295 299 305 309 308 306 307 308 305 302 300 298 297 297 297 299
223 224 224 223 223 224 226 228 229 231 233 235 236 238 240 241 243 245 247 249 251 253 255 256 258 259 260 262 264 267 269 272 274 276 279 282 283 285 287 288 288 288 288 287 286 284 284 283 282 283 283 283 284 284 286 288 290 291 292 293 294 295 295 295 297 297 296 295 294 294 293 293 295 299 304 308 306 305 307 306 304 304 303 301 298 296 296 297
225 226 226 226 227 228 230 232 233 235 236 238 240 241 243 245 246 247 249 251 253 254 256 257 258 259 260 262 264 267 270 272 274 277 279 281 283 285 286 287 287 287 286 285 284 282 282 281 281 281 282 283 283 284 286 288 289 291 292 292 294 295 295 295 296 295 294 291 290 292 292 293 297 301 304 305 303 305 306 304 303 304 304 304 302 300 299 299
227 228 228 229 230 231 233 235 236 238 239 241 243 244 246 247 249 250 251 253 254 255 256 257 257 258 260 262 265 267 270 273 275 278 281 282 284 285 285 285 285 284 283 282 282 281 280 280 281 281 282 282 283 284 286 287 289 291 292 292 294 295 294 295 295 293 292 290 289 291 292 293 299 304 305 305 304 305 304 302 303 302 301 302 301 301 301 302
229 230 231 232 233 234 236 237 239 241 242 244 245 247 248 249 250 251 253 254 254 255 255 256 257 258 260 262 265 268 271 274 276 280 282 282 283 283 283 283 283 282 281 281 280 280 280 280 281 282 283 283 285 286 287 288 290 291 292 293 294 293 293 295 294 291 291 291 291 292 292 294 301 306 305 305 306 305 302 302 302 301 300 300 300 301 303 305
232 232 233 234 235 236 238 239 241 243 244 246 247 248 249 250 251 252 253 254 254 254 255 256 257 259 261 264 266 269 272 275 277 280 281 281 281 281 281 281 281 281 280 280 280 281 281 282 282 284 285 285 286 287 288 289 290 291 291 292 293 292 293 294 292 291 292 292 292 293 294 296 302 305 303 303 305 303 301 300 299 299 300 300 300 302 304 306
236 236 236 237 238 239 240 241 243 244 245 247 248 249 250 250 251 252 252 253 254 254 256 257 259 261 263 265 267 270 273 275 278 279 278 278 278 278 278 278 278 279 279 280 281 282 283 284 285 286 286 287 287 288 288 289 289 289 289 290 291 291 291 290 289 289 291 292 291 293 295 297 301 301 298 299 301 300 298 297 296 297 298 299 301 302 302 302
238 238 239 239 240 241 242 243 244 245 246 247 248 249 249 250 251 251 252 253 254 256 257 259 261 263 265 266 268 272 273 274 276 277 275 275 275 276 276 276 277 278 279 280 282 283 284 285 286 286 286 287 287 287 287 287 287 286 286 287 288 288 288 286 286 287 289 289 289 292 293 295 297 297 295 295 296 295 294 293 294 295 296 298 300 301 300 300
239 240 240 241 241 242 243 243 244 245 246 247 248 248 249 250 251 252 253 254 256 257 259 261 263 264 266 268 270 272 272 272 273 273 273 274 275 276 277 278 279 280 281 282 283 284 285 285 286 286 286 286 286 285 285 285 285 285 285 285 284 284 285 284 284 285 287 286 287 288 290 291 294 294 292 292 293 292 291 291 292 293 295 298 299 299 299 299
241 241 242 242 242 243 244 244 245 246 247 248 248 250 250 252 253 254 255 257 258 259 261 262 264 266 267 269 270 270 270 271 271 272 273 274 276 277 278 280 281 282 282 283 284 284 284 285 285 285 284 285 284 284 284 284 284 285 284 284 282 282 282 282 282 284 285 285 285 286 286 289 292 292 290 290 291 290 290 290 292 294 297 298 298 297 298 298
243 243 244 244 244 245 245 246 247 247 248 249 250 251 252 254 255 256 257 259 260 261 263 264 265 266 267 267 268 268 268 270 271 273 274 276 277 278 280 281 282 282 282 283 283 283 283 283 283 283 283 283 283 283 283 283 284 284 284 282 282 282 282 281 282 283 284 285 285 285 286 287 290 289 288 289 290 288 288 289 291 296 298 298 297 297 298 297
244 245 245 246 247 247 247 248 248 249 250 251 252 253 254 255 256 257 259 260 261 262 263 264 265 265 265 266 267 268 269 271 272 274 276 277 278 279 280 280 281 281 281 281 281 282 282 282 281 281 282 282 282 283 283 283 284 284 283 282 281 280 280 281 283 286 286 285 285 285 285 287 290 288 287 288 288 287 287 289 294 297 297 296 296 295 295 294
244 246 246 247 248 249 249 250 250 251 252 253 254 255 256 257 257 258 259 260 261 262 262 263 263 264 265 266 268 270 271 273 274 275 276 278 279 279 279 279 279 279 279 279 280 280 281 281 281 281 281 282 282 283 284 285 285 284 283 282 280 279 279 282 285 287 286 285 285 286 285 287 290 287 287 288 287 287 289 292 296 296 295 294 293 292 291 290
244 245 246 247 248 249 250 251 251 252 253 254 254 255 256 257 257 258 259 259 260 261 262 263 264 265 266 268 270 271 273 274 274 275 276 277 277 277 277 277 278 278 278 279 280 280 281 281 281 282 282 283 283 284 285 285 285 285 283 282 281 281 283 285 287 287 287 286 286 286 286 289 290 287 287 287 286 288 290 293 294 294 294 293 292 290 289 288
244 245 246 247 248 249 250 251 252 252 253 253 254 255 255 256 257 258 258 259 260 261 263 264 265 267 268 269 270 271 272 273 274 274 275 275 275 275 276 277 278 279 279 280 280 280 281 281 282 282 283 284 286 287 287 286 285 285 283 282 283 285 286 287 288 288 288 287 287 287 288 291 291 287 286 285 286 287 289 290 292 293 292 291 291 290 289 287
246 246 247 248 249 250 250 251 252 253 253 254 254 255 255 256 257 258 259 260 261 263 264 265 267 267 268 269 269 269 270 271 272 273 273 273 273 274 276 277 277 278 279 280 280 281 281 281 281 282 283 286 288 289 287 285 285 284 283 284 286 286 287 287 289 288 286 286 286 287 289 291 291 288 286 285 286 286 286 288 290 290 289 289 289 289 289 288
247 248 248 249 250 251 251 252 253 254 254 255 255 256 256 257 258 259 260 261 262 263 264 265 266 266 267 268 268 268 268 270 270 271 272 273 274 275 276 276 276 277 278 279 280 281 281 281 281 282 284 289 290 288 285 285 285 284 285 286 286 286 287 289 290 288 285 284 284 286 288 288 289 288 286 286 287 286 286 286 287 287 287 287 287 288 288 287
248 248 249 250 250 251 252 253 254 254 255 255 256 256 257 258 258 259 260 261 261 262 263 263 264 265 266 266 267 267 268 269 270 271 272 274 274 275 275 275 275 276 278 279 280 280 281 281 281 283 288 291 289 286 284 284 285 285 286 286 286 286 287 290 290 287 286 284 285 287 286 287 288 287 286 287 287 287 287 287 287 286 286 284 284 284 285 285
249 249 249 249 250 251 252 253 254 255 255 256 256 257 257 258 258 258 259 259 260 260 261 262 263 264 266 266 267 268 269 269 270 271 272 273 273 273 273 275 276 277 278 279 279 279 281 282 283 287 290 289 286 285 284 285 285 285 285 285 286 287 288 290 288 287 286 285 285 286 286 287 287 285 286 288 288 288 288 288 288 287 285 283 281 280 281 281
249 249 250 250 250 251 252 252 253 254 255 256 256 257 257 258 258 258 258 258 259 260 261 262 263 264 266 267 267 268 269 269 269 270 270 271 271 272 273 274 275 276 277 278 278 280 282 282 285 288 288 286 284 284 285 285 285 284 284 285 286 287 289 288 286 286 285 284 285 287 286 287 285 284 285 287 288 288 288 288 289 289 287 285 282 280 280 280
249 250 250 251 251 251 252 252 253 254 254 255 256 256 257 257 258 259 259 258 258 260 261 262 264 265 266 267 268 268 268 268 268 268 269 269 270 271 272 273 274 276 276 277 280 282 283 283 286 287 286 284 284 284 285 285 285 285 285 285 286 287 287 285 284 284 283 283 285 286 286 285 284 285 288 289 290 290 289 290 291 291 291 289 288 286 286 285
249 250 250 251 251 252 252 252 253 254 254 255 255 256 257 257 258 259 259 259 258 259 261 262 263 264 265 266 267 267 267 267 268 268 268 269 270 271 272 273 275 276 276 278 281 282 281 283 286 286 284 283 283 283 284 285 285 285 284 285 286 286 284 283 283 282 282 282 283 284 285 285 287 289 290 291 291 289 288 290 291 292 292 292 291 292 291 290
249 250 250 251 252 252 252 253 253 254 254 255 255 256 256 257 258 258 259 259 258 258 259 261 262 263 263 264 265 265 266 267 266 267 267 268 270 271 272 274 275 276 278 280 280 279 280 284 286 284 282 282 282 283 284 284 283 283 283 285 285 283 282 282 282 282 281 282 282 283 284 285 287 289 290 291 289 286 285 287 289 290 290 290 291 291 291 290
249 250 251 251 252 253 253 254 254 254 254 255 255 256 256 257 258 258 259 259 258 257 258 259 261 262 262 263 263 265 266 265 266 267 268 269 270 272 273 275 276 278 280 281 280 279 282 284 283 280 280 280 281 281 281 281 280 281 283 283 282 281 282 282 282 282 282 282 283 284 284 285 285 284 285 286 283 282 283 286 287 287 287 288 288 288 288 288
250 251 251 252 253 253 254 255 255 255 255 256 256 256 256 256 257 258 259 260 259 258 257 258 259 261 262 263 263 264 265 265 266 268 269 270 271 273 275 276 278 280 281 282 281 282 283 281 279 278 278 278 278 278 277 278 279 281 281 280 280 281 282 282 283 283 282 283 283 284 286 287 286 285 284 281 279 282 285 287 287 287 288 289 289 289 289 289
249 250 251 252 252 253 254 254 255 255 256 256 255 255 255 255 256 257 259 260 260 260 259 258 258 260 262 262 263 264 265 266 268 269 270 271 272 273 275 277 279 280 281 282 283 283 281 278 277 278 277 276 276 276 276 277 278 279 278 278 280 282 282 283 283 283 283 284 283 285 289 288 285 287 286 282 282 285 287 288 290 292 293 293 294 294 293 293
248 249 250 251 252 252 253 254 255 255 255 255 255 255 254 255 256 257 259 260 261 261 261 260 259 260 262 263 263 264 265 267 269 269 270 271 272 273 275 277 278 280 281 282 282 280 277 277 277 277 276 276 275 275 276 277 277 277 278 279 280 281 282 283 283 284 284 284 284 288 292 289 287 288 287 286 288 290 291 292 294 295 295 296 297 296 295 294
249 250 250 251 251 252 252 254 255 255 255 256 256 255 255 255 256 257 258 258 260 262 262 263 264 264 264 265 265 265 265 267 268 269 270 270 271 273 274 276 277 279 279 278 276 275 276 276 276 275 274 274 274 275 276 277 277 278 279 280 280 280 281 282 282 283 284 284 286 290 293 290 289 289 290 293 295 296 297 299 299 299 299 299 299 297 295 293
249 250 251 252 253 253 254 255 255 255 255 255 255 256 256 256 256 257 256 257 259 262 264 266 267 267 267 267 267 267 266 266 267 268 269 270 271 273 274 275 276 276 275 273 272 273 274 273 273 272 272 272 273 275 276 276 277 277 277 277 278 278 279 280 282 283 284 286 289 291 290 289 289 290 293 296 298 300 302 302 301 302 302 302 300 298 296 295
249 251 252 253 254 254 254 255 254 254 254 253 254 255 255 256 255 255 256 258 259 261 264 267 269 269 270 270 269 268 267 266 266 267 268 270 271 273 275 275 273 271 269 270 271 271 271 271 271 271 271 272 273 274 274 275 275 274 273 273 274 275 277 278 280 282 285 290 292 292 290 290 291 292 295 297 299 301 301 300 301 301 302 301 299 298 297 296
248 250 252 254 255 255 255 254 254 253 253 253 254 255 255 256 255 254 256 258 259 261 264 267 269 271 272 271 269 267 266 266 266 267 268 269 271 273 274 272 269 267 267 269 269 267 268 269 269 270 271 271 271 271 272 272 271 270 270 271 272 274 275 277 280 283 287 290 290 290 291 292 294 295 296 297 298 298 297 297 298 299 298 297 295 294 294 294
246 251 254 255 256 256 254 254 254 254 255 255 255 254 254 254 255 255 256 257 259 262 265 268 269 271 271 270 268 266 265 265 266 267 268 269 271 271 270 268 266 266 267 267 266 266 267 267 268 268 268 267 268 268 268 268 268 268 270 271 272 274 276 279 283 284 286 286 287 290 292 293 296 297 297 296 294 294 294 295 295 294 293 292 291 290 291 291
250 253 254 254 254 253 251 252 253 254 255 255 254 252 251 253 257 258 258 259 261 264 266 267 268 268 268 268 267 266 265 266 266 267 268 269 269 268 267 266 264 264 265 265 265 265 266 265 265 265 265 265 265 265 265 266 266 267 269 270 273 275 277 281 283 284 285 286 288 291 291 294 297 297 296 294 292 291 291 291 290 289 288 287 287 288 289 289
252 252 250 249 250 250 249 249 250 253 255 255 255 252 252 256 260 260 260 262 263 263 263 264 265 265 264 264 264 265 266 267 267 267 267 267 267 265 264 263 262 263 263 264 265 265 265 263 262 261 262 263 263 263 263 264 265 266 267 270 273 275 276 278 280 283 285 286 290 292 293 296 297 296 294 291 290 290 289 288 287 286 286 286 286 287 287 288
249 249 247 246 246 246 246 248 248 251 253 252 250 252 255 258 260 259 259 260 260 259 259 260 261 261 260 261 262 264 265 266 266 265 265 265 264 263 262 261 262 262 263 264 265 265 264 263 262 260 260 261 261 262 262 263 265 267 269 272 275 275 274 275 278 282 283 285 290 294 294 295 294 293 292 289 288 288 286 286 286 286 287 287 287 287 287 287
244 245 245 244 244 242 243 246 246 248 250 247 245 248 253 255 256 257 257 258 258 258 258 258 258 259 260 262 262 262 263 264 264 264 264 264 263 262 262 261 261 262 263 263 263 263 264 265 264 263 261 261 261 262 264 265 267 271 275 277 276 275 275 276 278 281 282 284 290 293 292 292 292 291 290 287 286 285 284 285 286 286 287 287 287 287 286 286
237 238 240 241 242 242 242 243 243 244 246 245 245 248 250 251 253 256 257 259 260 259 259 259 259 260 260 261 260 261 263 265 266 265 265 264 263 262 262 262 262 262 262 262 262 264 265 265 266 266 264 264 263 263 265 268 270 273 276 277 275 274 275 276 277 280 282 284 287 290 290 291 290 289 288 285 284 284 284 285 285 286 287 286 286 285 285 285
233 233 234 236 237 238 239 240 240 241 242 242 245 249 252 252 253 256 259 261 261 259 259 259 260 260 259 258 258 261 264 268 269 268 267 266 264 264 263 263 262 262 262 262 262 264 264 264 266 268 268 267 268 267 268 270 271 272 273 274 275 274 274 275 276 279 280 280 282 286 288 290 290 287 285 283 283 284 284 285 286 286 286 285 284 284 285 285
234 233 231 232 233 232 234 237 238 240 241 244 247 251 255 258 258 257 258 258 259 259 258 259 259 259 258 259 261 263 265 267 267 267 268 268 267 266 265 264 262 260 260 260 261 262 263 264 267 269 269 269 271 272 272 271 270 271 272 273 274 274 273 274 274 276 276 276 280 282 284 287 287 285 283 283 284 285 285 286 286 285 285 284 285 285 286 285
234 236 233 232 232 230 231 235 237 239 242 244 246 248 252 255 257 257 256 257 259 261 262 262 262 261 260 261 262 262 261 259 258 259 263 267 267 266 265 263 259 257 257 258 258 259 261 263 266 268 270 271 272 273 272 272 271 271 272 273 273 273 273 273 274 276 276 276 279 279 280 285 286 285 285 286 286 286 286 287 286 285 285 285 285 285 285 284
234 237 238 236 235 233 233 235 237 239 241 243 243 243 244 248 250 252 254 255 257 259 260 261 260 260 259 258 257 254 251 248 248 251 257 262 263 261 260 259 257 256 256 257 258 259 260 262 264 266 269 270 271 271 270 270 271 272 273 275 276 274 274 274 276 279 277 276 278 277 278 283 285 284 286 287 287 287 287 287 287 286 286 285 285 285 284 284
239 239 241 243 242 239 238 238 237 238 240 241 242 242 243 244 245 247 250 251 250 250 250 250 251 251 251 250 248 245 244 243 244 248 253 257 257 256 256 256 256 256 256 257 259 260 261 263 264 265 266 266 267 269 270 271 273 274 275 276 275 274 275 275 276 277 276 276 279 277 278 283 285 286 288 287 285 286 286 286 286 286 286 286 286 285 285 284
245 244 245 247 247 245 244 244 242 240 241 241 243 244 245 245 244 245 246 246 245 244 243 244 245 246 246 245 243 242 242 243 244 247 251 253 253 253 254 255 256 257 258 259 260 260 261 261 262 263 264 265 267 269 271 273 274 273 273 272 271 272 273 274 275 276 275 278 279 276 279 285 288 289 288 285 285 287 287 286 286 286 286 286 285 285 285 285
246 247 248 249 250 249 249 249 246 243 242 242 242 243 242 241 241 242 242 241 241 241 242 243 245 245 244 243 241 241 242 243 246 248 250 252 252 253 254 255 256 258 259 259 260 260 261 261 262 264 265 267 270 271 271 270 269 269 270 271 273 274 275 275 276 275 277 279 278 278 283 287 288 288 286 284 285 286 285 285 285 285 285 284 284 284 284 284
244 246 248 250 251 249 248 248 245 241 239 238 238 237 236 235 235 236 237 237 239 241 242 243 243 242 241 241 240 240 241 242 245 247 249 250 251 253 254 255 256 257 259 260 261 262 262 263 264 265 266 267 269 268 267 267 267 268 271 273 275 277 277 277 277 278 280 281 280 284 287 285 286 288 286 285 285 284 283 284 284 283 283 283 283 283 283 283
238 239 242 242 241 241 240 240 238 237 237 237 237 235 234 233 233 234 236 238 240 240 240 240 240 240 239 239 239 239 240 242 245 247 248 250 252 254 255 257 258 259 260 261 261 262 263 263 265 265 266 267 267 267 268 269 270 271 273 274 277 279 280 279 279 282 282 280 283 289 287 284 287 289 285 284 284 283 283 283 282 282 282 282 282 282 282 282
233 232 231 230 229 230 231 232 232 233 235 237 238 237 237 236 237 240 241 242 241 240 239 238 238 239 239 239 240 240 242 245 248 250 253 255 255 256 257 258 258 259 259 260 261 261 262 263 265 265 266 267 268 269 271 272 273 275 276 277 280 281 280 280 281 283 282 281 285 288 284 283 288 286 282 282 282 281 281 280 280 280 280 280 280 280 281 281
237 233 229 227 225 224 226 227 230 234 237 239 239 240 240 240 239 240 240 240 238 238 238 238 238 240 241 242 244 244 246 250 254 256 258 259 258 259 259 259 259 259 259 260 261 261 263 265 266 266 267 269 270 272 273 274 276 277 278 280 282 281 281 282 284 285 283 282 285 284 282 283 286 283 281 281 280 278 278 277 278 279 279 279 279 279 280 281
238 236 232 231 228 225 226 227 229 232 235 237 239 240 241 240 238 236 237 237 236 237 239 239 240 244 248 249 249 250 253 257 260 261 262 262 262 262 262 261 261 261 261 262 263 263 265 267 268 269 270 270 272 274 274 275 276 277 279 281 282 282 283 285 286 285 283 283 283 282 281 283 284 282 280 279 278 277 278 279 280 280 280 279 279 280 281 281
237 235 232 232 231 230 230 230 231 232 232 233 236 236 236 236 236 237 239 239 240 241 243 244 247 251 253 255 256 257 259 262 263 263 264 264 264 264 263 263 263 262 263 263 264 265 267 269 270 271 271 272 274 275 275 276 275 276 279 281 282 283 285 285 284 283 282 283 282 280 281 283 283 280 278 278 278 278 280 280 280 279 279 280 280 280 280 280
237 238 237 236 234 234 234 235 236 236 235 235 237 237 238 239 240 243 246 246 246 248 250 251 255 257 257 259 261 262 263 264 264 264 265 265 265 265 264 264 264 263 263 263 264 266 267 269 271 272 273 274 274 274 275 275 273 276 280 283 283 284 284 282 281 281 281 280 279 280 281 283 281 278 277 277 278 278 278 278 278 278 279 279 280 280 279 279
Height
5848 5849 5850 5851 5852 5853 5854 5855 5856 5857 5858 5859 5860 5860 5861 5862 5862 5863 5863 5864 5864 5865 5865 5866 5866 5867 5867 5867 5868 5868 5868 5868 5869 5869 5869 5869 5869 5869 5869 5869 5869 5869 5869 5869 5869 5868 5868 5868 5868 5868 5868 5868 5868 5867 5867 5868 5867 5867 5867 5866 5866 5865 5865 5864 5864 5864 5863 5861 5861 5861 5861 5861 5860 5860 5860 5860 5858 5856 5855 5855 5854 5852 5852 5852 5853 5853 5853 5853
5846 5847 5848 5849 5850 5851 5852 5853 5854 5855 5856 5857 5858 5859 5859 5860 5861 5861 5862 5862 5863 5863 5864 5864 5865 5865 5866 5866 5866 5866 5867 5867 5867 5867 5868 5868 5868 5868 5868 5868 5867 5867 5867 5867 5867 5867 5867 5866 5866 5866 5866 5866 5866 5866 5866 5866 5865 5865 5865 5864 5864 5864 5863 5862 5862 5862 5861 5859 5859 5859 5860 5859 5859 5859 5859 5859 5857 5854 5853 5853 5852 5851 5851 5851 5851 5852 5851 5852
5844 5845 5846 5847 5849 5850 5851 5852 5853 5853 5854 5855 5856 5857 5858 5858 5859 5859 5860 5860 5861 5861 5862 5862 5863 5863 5864 5864 5865 5865 5865 5865 5865 5866 5866 5866 5866 5866 5866 5866 5865 5865 5865 5865 5865 5865 5865 5865 5864 5864 5864 5864 5864 5864 5864 5864 5863 5863 5862 5862 5862 5861 5860 5860 5860 5859 5858 5857 5857 5857 5858 5858 5858 5858 5858 5858 5855 5852 5851 5850 5849 5849 5849 5849 5849 5850 5850 5850
5842 5843 5844 5845 5846 5847 5848 5849 5850 5851 5852 5853 5854 5855 5855 5856 5857 5857 5858 5858 5859 5859 5860 5860 5861 5861 5862 5862 5863 5863 5863 5863 5863 5864 5864 5864 5864 5864 5864 5863 5863 5863 5863 5863 5863 5863 5863 5863 5862 5862 5862 5862 5862 5862 5862 5862 5861 5861 5860 5860 5859 5859 5858 5857 5857 5856 5856 5855 5855 5856 5856 5855 5855 5855 5855 5856 5854 5851 5849 5848 5847 5847 5847 5847 5847 5847 5848 5848
5840 5841 5842 5843 5844 5845 5846 5847 5848 5849 5850 5851 5852 5852 5853 5854 5854 5855 5856 5856 5857 5857 5858 5858 5859 5859 5860 5860 5861 5861 5861 5861 5861 5862 5862 5861 5861 5861 5861 5861 5861 5861 5861 5861 5861 5861 5861 5860 5860 5860 5860 5860 5860 5860 5860 5859 5859 5858 5858 5857 5857 5856 5855 5855 5854 5854 5854 5854 5854 5854 5854 5853 5853 5853 5852 5852 5852 5850 5847 5845 5845 5846 5846 5846 5845 5845 5846 5846
5837 5838 5839 5840 5841 5842 5843 5844 5845 5846 5847 5848 5849 5850 5851 5851 5852 5853 5853 5854 5855 5855 5856 5856 5857 5857 5858 5858 5859 5859 5859 5858 5858 5860 5859 5859 5859 5859 5859 5859 5859 5859 5858 5859 5858 5858 5858 5858 5858 5858 5858 5858 5857 5857 5857 5857 5857 5856 5855 5854 5854 5853 5852 5852 5852 5851 5852 5852 5852 5852 5852 5851 5851 5850 5848 5848 5848 5848 5846 5844 5843 5843 5843 5843 5843 5843 5843 5844
5834 5835 5836 5837 5839 5840 5841 5842 5843 5844 5845 5846 5847 5847 5848 5849 5850 5850 5851 5852 5852 5853 5854 5854 5855 5855 5856 5856 5856 5857 5857 5855 5856 5857 5857 5856 5856 5856 5856 5856 5856 5856 5856 5856 5856 5856 5856 5856 5855 5855 5855 5855 5855 5854 5854 5854 5854 5853 5852 5852 5852 5851 5850 5849 5849 5849 5849 5850 5849 5850 5849 5848 5849 5849 5846 5845 5845 5844 5843 5842 5841 5840 5840 5840 5841 5841 5841 5841
5832 5833 5834 5835 5836 5837 5838 5839 5840 5841 5842 5843 5844 5845 5846 5846 5847 5848 5849 5849 5850 5850 5851 5851 5852 5852 5853 5854 5854 5855 5854 5852 5853 5854 5854 5854 5854 5854 5854 5854 5854 5854 5853 5853 5853 5853 5853 5853 5853 5853 5852 5852 5852 5851 5851 5851 5851 5851 5850 5850 5849 5849 5848 5847 5847 5846 5847 5847 5847 5847 5846 5845 5847 5847 5844 5843 5843 5842 5840 5839 5839 5838 5837 5837 5838 5839 5839 5839
5828 5830 5831 5832 5833 5834 5835 5836 5837 5838 5839 5840 5841 5842 5843 5843 5844 5845 5846 5847 5847 5848 5848 5849 5849 5850 5850 5851 5851 5852 5851 5850 5851 5851 5851 5851 5851 5851 5851 5851 5851 5851 5851 5851 5851 5851 5850 5850 5850 5849 5849 5849 5849 5848 5848 5848 5848 5848 5848 5848 5847 5847 5846 5845 5845 5844 5845 5845 5844 5845 5844 5843 5844 5844 5842 5841 5841 5839 5837 5836 5836 5836 5835 5835 5835 5835 5836 5836
5825 5826 5828 5829 5830 5831 5832 5833 5834 5835 5836 5837 5838 5839 5840 5840 5841 5842 5843 5844 5844 5845 5845 5846 5846 5847 5847 5848 5849 5848 5847 5847 5848 5848 5848 5848 5848 5848 5848 5848 5848 5848 5848 5848 5848 5847 5847 5847 5846 5846 5846 5846 5846 5846 5846 5846 5846 5846 5846 5846 5845 5845 5844 5843 5843 5842 5842 5842 5841 5842 5842 5841 5842 5841 5839 5838 5838 5837 5834 5833 5833 5834 5834 5833 5833 5832 5832 5832
5822 5823 5824 5825 5826 5827 5829 5830 5831 5832 5833 5834 5834 5835 5836 5837 5838 5839 5839 5840 5841 5841 5842 5843 5843 5843 5844 5845 5845 5845 5844 5845 5845 5845 5845 5845 5845 5845 5845 5845 5845 5845 5845 5844 5844 5844 5844 5843 5843 5843 5843 5843 5843 5843 5843 5843 5843 5843 5843 5844 5843 5843 5842 5841 5840 5840 5840 5839 5838 5839 5840 5840 5839 5838 5836 5835 5835 5834 5832 5831 5830 5831 5831 5831 5830 5829 5828 5828
5818 5819 5821 5822 5823 5824 5825 5826 5827 5828 5829 5830 5831 5832 5833 5834 5834 5835 5836 5837 5837 5838 5838 5839 5840 5840 5841 5842 5842 5841 5841 5842 5841 5842 5842 5842 5842 5842 5842 5842 5841 5841 5841 5841 5841 5840 5840 5840 5840 5840 5840 5840 5840 5840 5840 5840 5840 5840 5840 5840 5840 5840 5839 5838 5837 5838 5837 5835 5835 5835 5837 5838 5838 5835 5833 5832 5832 5831 5829 5828 5828 5829 5829 5828 5827 5826 5825 5824
5814 5815 5817 5818 5819 5820 5821 5823 5824 5825 5826 5826 5827 5828 5829 5830 5831 5831 5832 5833 5833 5834 5835 5835 5836 5836 5837 5838 5838 5838 5838 5838 5838 5838 5838 5838 5838 5838 5838 5838 5838 5837 5837 5837 5837 5837 5837 5837 5837 5837 5837 5837 5837 5837 5836 5837 5837 5837 5836 5836 5837 5836 5836 5835 5834 5835 5834 5832 5832 5831 5833 5836 5836 5832 5830 5829 5829 5828 5827 5827 5827 5827 5826 5825 5824 5823 5822 5820
5810 5811 5812 5814 5815 5816 5817 5818 5819 5821 5821 5822 5823 5824 5825 5826 5826 5827 5828 5829 5829 5830 5831 5831 5832 5833 5833 5835 5835 5834 5834 5834 5834 5834 5834 5835 5834 5834 5834 5834 5834 5834 5834 5834 5834 5834 5833 5833 5833 5833 5833 5833 5833 5833 5833 5833 5833 5833 5832 5832 5832 5832 5833 5833 5832 5831 5830 5829 5828 5828 5828 5832 5834 5829 5827 5826 5825 5825 5824 5824 5824 5823 5822 5821 5821 5820 5819 5817
5805 5806 5808 5809 5810 5812 5813 5814 5815 5816 5817 5818 5819 5820 5821 5821 5822 5823 5824 5825 5825 5826 5827 5827 5828 5828 5830 5831 5831 5831 5830 5830 5830 5831 5831 5831 5831 5830 5830 5830 5830 5830 5830 5830 5830 5830 5830 5829 5829 5829 5829 5830 5830 5829 5829 5829 5829 5829 5828 5827 5827 5828 5829 5831 5829 5828 5826 5825 5824 5824 5823 5828 5830 5827 5824 5823 5822 5822 5822 5822 5821 5820 5819 5818 5817 5817 5816 5815
5800 5801 5803 5805 5806 5807 5809 5810 5811 5812 5813 5814 5815 5815 5816 5817 5818 5819 5819 5820 5821 5822 5822 5823 5824 5824 5825 5827 5827 5827 5826 5826 5826 5827 5827 5827 5827 5827 5827 5827 5826 5826 5826 5826 5826 5826 5826 5825 5825 5825 5825 5826 5826 5826 5825 5825 5825 5825 5823 5823 5824 5824 5825 5827 5826 5825 5823 5820 5820 5820 5820 5823 5825 5823 5820 5819 5819 5819 5819 5818 5818 5817 5816 5815 5814 5813 5813 5812
5795 5797 5798 5800 5801 5803 5804 5805 5807 5808 5809 5809 5810 5811 5812 5813 5813 5814 5815 5816 5817 5817 5818 5818 5819 5819 5820 5822 5823 5823 5822 5822 5823 5823 5823 5823 5823 5823 5823 5823 5823 5823 5822 5822 5822 5822 5822 5821 5821 5821 5822 5822 5823 5822 5821 5820 5821 5820 5819 5819 5820 5820 5820 5822 5823 5821 5819 5817 5816 5816 5816 5818 5820 5818 5816 5815 5816 5816 5816 5815 5814 5813 5813 5812 5811 5810 5810 5809
5791 5792 5794 5795 5797 5798 5799 5801 5802 5803 5804 5805 5806 5806 5807 5808 5809 5809 5810 5811 5812 5813 5813 5814 5814 5814 5816 5818 5818 5818 5818 5819 5819 5819 5819 5819 5820 5820 5820 5819 5819 5819 5819 5818 5818 5818 5817 5817 5817 5817 5819 5820 5820 5818 5816 5816 5816 5815 5815 5815 5815 5815 5816 5817 5818 5817 5815 5813 5813 5813 5813 5814 5815 5814 5812 5811 5812 5812 5812 5812 5811 5810 5810 5809 5808 5807 5807 5806
5786 5787 5789 5790 5792 5793 5795 5796 5797 5798 5799 5800 5801 5802 5802 5803 5804 5805 5806 5806 5807 5808 5808 5809 5810 5810 5812 5813 5814 5814 5815 5815 5815 5815 5815 5815 5815 5815 5815 5815 5815 5815 5815 5815 5815 5814 5813 5813 5813 5814 5816 5817 5815 5813 5812 5812 5811 5811 5811 5811 5810 5811 5811 5813 5813 5811 5809 5808 5809 5810 5809 5810 5811 5809 5808 5808 5808 5808 5807 5807 5807 5807 5806 5806 5805 5804 5804 5803
5781 5783 5784 5785 5787 5788 5790 5791 5793 5794 5795 5795 5796 5797 5798 5798 5799 5800 5801 5802 5803 5803 5803 5804 5805 5806 5807 5809 5809 5809 5810 5810 5811 5811 5811 5811 5811 5811 5810 5811 5811 5811 5811 5811 5810 5810 5810 5809 5809 5811 5813 5812 5810 5808 5808 5808 5807 5807 5807 5806 5806 5806 5807 5809 5807 5805 5804 5803 5804 5806 5805 5806 5806 5805 5804 5804 5804 5804 5803 5802 5802 5803 5803 5802 5802 5802 5801 5801
5776 5778 5779 5780 5782 5783 5785 5786 5788 5789 5789 5790 5791 5792 5793 5794 5794 5794 5796 5796 5797 5798 5799 5799 5800 5802 5803 5804 5804 5805 5805 5805 5806 5807 5807 5807 5807 5806 5807 5807 5807 5807 5808 5807 5806 5806 5806 5804 5805 5808 5808 5806 5805 5804 5804 5804 5803 5803 5802 5802 5802 5802 5803 5803 5802 5800 5799 5798 5799 5801 5801 5802 5802 5801 5801 5801 5800 5800 5799 5798 5798 5799 5799 5799 5799 5799 5799 5798
5771 5773 5774 5775 5777 5778 5780 5781 5782 5784 5784 5785 5786 5787 5788 5788 5788 5789 5790 5790 5792 5793 5794 5795 5796 5798 5799 5798 5799 5799 5799 5800 5802 5803 5802 5802 5802 5802 5802 5803 5803 5803 5803 5802 5802 5802 5801 5800 5802 5803 5802 5800 5800 5800 5800 5799 5799 5798 5798 5797 5798 5798 5798 5797 5797 5796 5795 5794 5795 5795 5796 5797 5797 5797 5798 5797 5797 5796 5794 5794 5794 5794 5795 5795 5795 5795 5796 5796
5766 5767 5769 5770 5772 5773 5775 5776 5777 5779 5779 5780 5781 5782 5782 5783 5783 5783 5783 5784 5787 5789 5789 5790 5791 5793 5794 5794 5794 5794 5794 5796 5797 5798 5798 5798 5798 5798 5798 5798 5799 5799 5798 5799 5799 5797 5795 5796 5798 5797 5796 5795 5795 5795 5795 5795 5794 5794 5793 5793 5794 5794 5793 5792 5792 5792 5791 5791 5791 5791 5791 5792 5793 5793 5793 5793 5793 5792 5791 5791 5791 5791 5791 5791 5791 5791 5791 5791
5760 5762 5763 5765 5766 5767 5769 5771 5772 5774 5774 5775 5776 5777 5777 5777 5777 5777 5777 5777 5780 5784 5785 5785 5786 5787 5789 5789 5789 5789 5789 5791 5792 5793 5794 5794 5793 5793 5793 5793 5793 5793 5794 5795 5794 5792 5791 5793 5793 5792 5791 5790 5790 5791 5791 5791 5790 5789 5789 5790 5790 5789 5788 5788 5788 5788 5787 5787 5787 5786 5786 5788 5789 5789 5789 5789 5788 5787 5787 5788 5788 5788 5788 5788 5788 5787 5787 5786
5754 5756 5757 5759 5760 5762 5764 5765 5768 5768 5769 5770 5771 5771 5772 5772 5772 5771 5772 5770 5772 5778 5781 5781 5781 5782 5783 5784 5784 5785 5785 5786 5787 5788 5789 5789 5789 5789 5788 5788 5788 5789 5790 5790 5788 5787 5789 5790 5788 5786 5786 5786 5786 5786 5786 5786 5785 5786 5786 5786 5785 5785 5784 5784 5784 5783 5783 5782 5782 5782 5781 5783 5785 5785 5785 5785 5784 5783 5784 5785 5785 5784 5784 5784 5784 5784 5783 5782
5748 5750 5752 5753 5755 5756 5758 5761 5763 5763 5764 5766 5766 5766 5766 5766 5766 5766 5766 5764 5765 5772 5776 5776 5776 5776 5778 5779 5780 5781 5779 5780 5783 5784 5784 5784 5784 5784 5783 5783 5784 5784 5784 5783 5782 5782 5784 5784 5782 5781 5782 5782 5782 5782 5782 5781 5781 5782 5782 5781 5781 5781 5781 5780 5779 5779 5778 5778 5778 5778 5777 5778 5779 5780 5782 5781 5780 5779 5780 5780 5780 5780 5780 5780 5779 5778 5778 5777
5742 5744 5746 5747 5749 5751 5753 5755 5756 5757 5759 5760 5760 5760 5760 5760 5760 5761 5762 5759 5758 5764 5768 5770 5771 5771 5773 5775 5776 5776 5774 5776 5779 5778 5779 5779 5779 5779 5778 5778 5779 5779 5778 5777 5777 5778 5778 5777 5777 5777 5777 5777 5778 5777 5777 5777 5777 5777 5777 5777 5776 5776 5776 5776 5775 5775 5774 5774 5774 5775 5775 5774 5773 5775 5776 5776 5776 5776 5775 5775 5775 5775 5774 5773 5773 5772 5772 5771
5736 5737 5739 5741 5742 5745 5747 5749 5750 5752 5753 5753 5754 5754 5753 5754 5755 5756 5756 5753 5752 5757 5760 5762 5765 5768 5769 5769 5770 5771 5770 5772 5773 5773 5774 5774 5773 5774 5773 5773 5774 5773 5773 5772 5772 5773 5773 5772 5773 5773 5773 5773 5773 5773 5773 5773 5773 5773 5773 5772 5772 5772 5771 5771 5771 5771 5771 5771 5771 5772 5773 5770 5768 5769 5769 5769 5771 5771 5770 5770 5770 5769 5768 5767 5767 5766 5766 5765
5729 5731 5733 5734 5736 5738 5740 5742 5744 5746 5746 5748 5748 5747 5748 5749 5749 5750 5749 5747 5748 5750 5751 5753 5758 5763 5764 5764 5765 5765 5766 5767 5767 5767 5768 5768 5768 5769 5768 5768 5768 5768 5768 5768 5768 5768 5768 5768 5768 5769 5769 5769 5769 5769 5769 5769 5769 5769 5769 5768 5768 5767 5767 5767 5766 5767 5767 5767 5768 5769 5769 5766 5763 5762 5762 5763 5765 5765 5764 5764 5763 5762 5762 5761 5761 5760 5759 5758
5722 5725 5726 5727 5729 5732 5734 5736 5738 5739 5740 5741 5740 5740 5742 5742 5743 5742 5740 5741 5744 5743 5744 5747 5751 5755 5757 5758 5759 5760 5760 5761 5761 5761 5761 5762 5762 5762 5762 5763 5763 5763 5762 5763 5763 5764 5763 5763 5763 5764 5764 5764 5764 5764 5764 5764 5764 5765 5765 5764 5764 5763 5763 5763 5763 5763 5763 5763 5764 5765 5764 5762 5760 5758 5758 5758 5758 5758 5757 5756 5756 5755 5755 5754 5754 5753 5752 5750
5716 5718 5719 5720 5722 5725 5727 5730 5731 5731 5732 5733 5733 5733 5734 5734 5734 5733 5732 5737 5740 5738 5739 5742 5743 5746 5749 5751 5753 5753 5754 5754 5755 5755 5755 5756 5756 5756 5757 5757 5757 5757 5757 5758 5759 5759 5758 5758 5759 5759 5759 5760 5760 5760 5760 5760 5760 5760 5760 5760 5759 5759 5759 5759 5759 5759 5759 5759 5759 5758 5757 5756 5755 5755 5754 5753 5752 5752 5751 5750 5749 5749 5749 5748 5747 5746 5745 5744
5709 5711 5711 5713 5716 5718 5720 5723 5724 5723 5724 5725 5725 5725 5726 5725 5723 5724 5728 5733 5733 5732 5735 5737 5737 5739 5742 5744 5745 5746 5747 5748 5748 5749 5749 5750 5750 5750 5751 5751 5751 5751 5752 5753 5754 5753 5753 5754 5754 5754 5755 5755 5755 5756 5756 5756 5756 5755 5755 5755 5755 5754 5754 5754 5755 5755 5755 5755 5754 5753 5751 5750 5751 5751 5750 5749 5748 5746 5746 5745 5745 5744 5743 5743 5742 5741 5740 5739
5703 5703 5704 5707 5709 5711 5713 5715 5716 5716 5716 5718 5718 5718 5718 5714 5713 5719 5724 5726 5727 5728 5731 5732 5733 5734 5734 5736 5737 5738 5739 5740 5741 5742 5743 5744 5744 5744 5745 5745 5746 5746 5747 5748 5748 5748 5749 5749 5750 5750 5751 5751 5751 5752 5752 5752 5751 5751 5751 5751 5750 5750 5749 5749 5750 5750 5749 5749 5748 5748 5746 5745 5746 5746 5745 5744 5742 5741 5741 5740 5740 5739 5738 5737 5737 5736 5735 5734
5696 5697 5698 5700 5702 5705 5707 5708 5709 5710 5710 5709 5710 5711 5708 5704 5709 5715 5717 5719 5723 5725 5726 5727 5728 5728 5728 5728 5729 5730 5732 5733 5734 5735 5736 5737 5738 5739 5740 5740 5740 5740 5741 5741 5742 5743 5744 5745 5746 5746 5746 5746 5747 5747 5747 5747 5747 5747 5747 5746 5746 5745 5744 5745 5745 5743 5742 5742 5743 5743 5741 5741 5742 5741 5739 5738 5736 5736 5736 5735 5734 5734 5733 5732 5732 5731 5730 5729
5689 5690 5692 5693 5696 5699 5701 5702 5704 5704 5704 5703 5702 5700 5699 5701 5706 5709 5710 5714 5718 5719 5721 5722 5722 5722 5721 5721 5722 5723 5724 5726 5728 5729 5730 5731 5732 5733 5734 5734 5734 5735 5735 5736 5737 5738 5739 5740 5741 5741 5741 5742 5742 5742 5743 5743 5742 5742 5742 5741 5741 5742 5740 5739 5738 5737 5736 5735 5736 5737 5736 5736 5737 5736 5734 5731 5730 5730 5729 5729 5728 5727 5728 5727 5726 5725 5724 5723
5683 5684 5685 5687 5691 5694 5695 5697 5699 5699 5699 5699 5695 5690 5694 5699 5701 5702 5705 5708 5710 5712 5715 5716 5716 5716 5715 5715 5716 5717 5718 5719 5721 5722 5723 5725 5726 5727 5728 5728 5729 5729 5730 5731 5732 5732 5732 5733 5735 5736 5737 5737 5737 5737 5737 5738 5737 5736 5737 5736 5737 5736 5734 5732 5730 5731 5730 5728 5729 5731 5730 5731 5731 5730 5728 5725 5724 5724 5722 5722 5721 5721 5721 5720 5719 5718 5717 5716
5677 5678 5679 5681 5685 5688 5689 5692 5694 5694 5694 5693 5688 5687 5692 5695 5694 5696 5699 5701 5703 5706 5708 5710 5711 5711 5711 5711 5711 5712 5712 5713 5715 5716 5717 5719 5719 5721 5722 5723 5723 5724 5725 5726 5726 5726 5727 5727 5728 5730 5731 5732 5732 5732 5732 5731 5731 5730 5731 5731 5730 5728 5726 5725 5724 5724 5724 5721 5722 5725 5725 5725 5725 5724 5723 5720 5718 5717 5716 5716 5715 5714 5714 5713 5712 5711 5710 5709
5671 5672 5673 5675 5679 5682 5683 5685 5687 5688 5688 5684 5682 5684 5688 5689 5689 5690 5692 5694 5696 5699 5701 5703 5705 5706 5706 5706 5705 5706 5706 5707 5708 5710 5712 5713 5713 5715 5716 5717 5718 5719 5720 5720 5720 5721 5722 5722 5722 5723 5724 5726 5727 5726 5725 5725 5726 5726 5725 5725 5723 5721 5720 5720 5718 5718 5717 5714 5715 5717 5718 5719 5719 5718 5716 5713 5712 5710 5708 5709 5709 5708 5707 5706 5704 5703 5702 5702
5665 5666 5665 5668 5672 5675 5676 5677 5679 5680 5678 5675 5676 5679 5681 5683 5685 5686 5687 5688 5689 5692 5694 5696 5698 5700 5700 5699 5699 5700 5701 5701 5702 5703 5705 5707 5708 5710 5711 5712 5713 5713 5714 5715 5714 5715 5716 5716 5715 5716 5718 5719 5719 5720 5720 5720 5720 5720 5718 5717 5717 5715 5714 5714 5713 5713 5711 5708 5707 5709 5711 5713 5713 5710 5707 5705 5706 5704 5701 5702 5702 5701 5700 5698 5696 5696 5695 5695
5659 5659 5658 5662 5665 5667 5667 5667 5668 5669 5668 5668 5672 5673 5675 5678 5680 5681 5682 5683 5683 5685 5687 5689 5692 5693 5694 5693 5693 5694 5695 5696 5696 5697 5698 5700 5702 5703 5704 5706 5707 5707 5708 5708 5708 5709 5709 5710 5710 5710 5711 5712 5713 5713 5714 5714 5712 5712 5711 5711 5711 5710 5709 5708 5707 5707 5705 5702 5702 5702 5703 5708 5707 5702 5698 5698 5700 5698 5695 5695 5696 5694 5692 5690 5689 5689 5688 5687
5652 5652 5653 5657 5658 5659 5659 5658 5659 5660 5661 5665 5668 5669 5669 5672 5673 5674 5675 5677 5677 5679 5681 5683 5685 5686 5687 5688 5688 5688 5689 5690 5691 5691 5692 5694 5695 5697 5698 5699 5700 5701 5701 5702 5702 5703 5703 5703 5704 5704 5704 5705 5707 5707 5706 5705 5704 5705 5705 5705 5705 5704 5703 5700 5699 5702 5700 5696 5697 5694 5693 5702 5703 5695 5690 5691 5693 5692 5689 5688 5687 5685 5684 5683 5683 5683 5681 5680
5644 5645 5648 5651 5651 5652 5652 5652 5653 5655 5657 5661 5664 5665 5665 5666 5667 5668 5669 5671 5673 5674 5675 5676 5678 5679 5681 5682 5682 5683 5683 5684 5685 5686 5687 5689 5690 5691 5692 5693 5694 5695 5696 5696 5696 5696 5696 5696 5697 5698 5698 5699 5699 5699 5699 5698 5698 5698 5699 5700 5700 5697 5696 5693 5691 5695 5693 5689 5691 5686 5683 5693 5698 5692 5688 5685 5683 5684 5683 5681 5678 5677 5677 5676 5676 5675 5673 5671
5637 5639 5642 5643 5643 5645 5646 5646 5648 5651 5653 5656 5658 5659 5659 5661 5662 5663 5665 5666 5667 5667 5669 5670 5671 5673 5674 5676 5676 5677 5677 5678 5680 5681 5682 5684 5685 5686 5687 5688 5688 5689 5689 5689 5689 5689 5689 5689 5690 5691 5691 5691 5691 5691 5691 5692 5693 5693 5694 5695 5694 5691 5691 5688 5685 5686 5684 5683 5685 5679 5674 5684 5690 5688 5685 5679 5674 5676 5676 5674 5671 5669 5669 5668 5667 5666 5664 5662
5631 5633 5635 5635 5636 5639 5639 5640 5643 5646 5648 5650 5651 5652 5653 5655 5656 5658 5659 5659 5659 5660 5662 5663 5665 5666 5668 5669 5669 5670 5670 5671 5673 5675 5677 5678 5680 5681 5682 5682 5682 5682 5682 5683 5683 5682 5682 5682 5683 5684 5683 5684 5685 5685 5685 5687 5687 5687 5688 5688 5687 5686 5685 5682 5680 5678 5674 5677 5680 5671 5667 5676 5683 5682 5678 5671 5668 5669 5668 5665 5664 5663 5661 5659 5658 5656 5655 5654
5625 5626 5627 5628 5630 5632 5633 5635 5638 5640 5641 5643 5644 5644 5646 5647 5649 5651 5652 5652 5652 5654 5655 5657 5659 5660 5661 5662 5663 5663 5664 5665 5666 5669 5671 5673 5674 5675 5675 5675 5675 5675 5675 5676 5676 5676 5675 5675 5676 5677 5676 5677 5679 5679 5680 5681 5680 5679 5680 5681 5681 5680 5678 5675 5674 5670 5667 5669 5671 5666 5663 5669 5676 5675 5668 5664 5663 5662 5659 5656 5657 5655 5653 5650 5649 5648 5647 5646
5617 5618 5620 5622 5624 5626 5627 5629 5631 5632 5634 5635 5636 5637 5639 5641 5643 5644 5644 5645 5647 5648 5649 5650 5652 5653 5654 5655 5656 5657 5657 5658 5659 5662 5665 5666 5667 5668 5668 5668 5669 5669 5669 5669 5668 5669 5668 5668 5669 5669 5669 5671 5672 5672 5672 5673 5673 5673 5675 5676 5675 5673 5671 5668 5665 5664 5663 5660 5660 5664 5662 5658 5666 5668 5660 5656 5657 5654 5651 5650 5648 5646 5644 5642 5641 5639 5638 5637
5610 5611 5614 5616 5617 5618 5620 5623 5624 5626 5627 5628 5629 5632 5634 5635 5637 5637 5638 5640 5640 5641 5641 5643 5645 5647 5648 5649 5649 5649 5651 5652 5653 5656 5658 5659 5659 5660 5661 5662 5662 5662 5662 5661 5661 5662 5661 5661 5663 5661 5661 5663 5664 5663 5664 5665 5666 5668 5669 5670 5670 5668 5664 5660 5658 5659 5659 5651 5650 5660 5656 5647 5656 5662 5652 5647 5648 5645 5643 5641 5639 5638 5636 5634 5633 5631 5630 5629
5604 5605 5607 5608 5609 5611 5614 5616 5617 5617 5618 5620 5622 5625 5628 5630 5631 5632 5633 5633 5633 5634 5634 5637 5640 5641 5641 5641 5641 5642 5645 5645 5647 5649 5650 5651 5652 5653 5653 5654 5655 5655 5655 5654 5654 5654 5652 5653 5656 5654 5653 5656 5656 5655 5657 5658 5658 5661 5662 5664 5664 5661 5655 5652 5652 5653 5651 5644 5645 5651 5646 5642 5650 5650 5642 5640 5639 5637 5635 5633 5630 5629 5627 5626 5625 5624 5623 5622
5598 5600 5601 5602 5603 5605 5606 5608 5608 5609 5611 5613 5615 5619 5622 5623 5624 5625 5625 5624 5626 5627 5628 5631 5635 5634 5632 5632 5633 5636 5639 5639 5640 5641 5641 5642 5644 5645 5646 5647 5647 5648 5648 5646 5646 5646 5644 5646 5648 5646 5646 5648 5648 5648 5649 5650 5650 5652 5655 5657 5657 5652 5646 5645 5646 5646 5642 5638 5640 5641 5635 5637 5643 5638 5632 5634 5631 5626 5626 5625 5623 5622 5620 5618 5616 5615 5616 5614
5590 5593 5595 5595 5597 5598 5599 5599 5600 5602 5603 5605 5610 5615 5616 5616 5618 5618 5616 5616 5618 5620 5621 5625 5627 5625 5623 5624 5626 5631 5633 5631 5631 5633 5633 5633 5636 5637 5638 5639 5640 5640 5640 5640 5639 5638 5638 5638 5639 5639 5638 5640 5642 5640 5640 5642 5641 5642 5648 5651 5648 5642 5639 5639 5639 5638 5633 5630 5632 5631 5625 5630 5636 5630 5623 5624 5620 5616 5618 5618 5616 5613 5611 5609 5608 5608 5608 5606
5582 5584 5586 5588 5590 5591 5592 5593 5594 5594 5596 5600 5606 5609 5608 5609 5610 5608 5607 5609 5611 5613 5615 5618 5618 5616 5616 5618 5621 5625 5625 5622 5622 5625 5625 5626 5628 5629 5630 5631 5633 5632 5633 5633 5632 5632 5632 5630 5632 5632 5628 5630 5635 5632 5630 5633 5631 5632 5641 5645 5640 5636 5635 5632 5630 5629 5626 5622 5621 5619 5616 5621 5625 5620 5614 5613 5611 5610 5611 5612 5608 5605 5602 5600 5601 5601 5599 5597
5575 5576 5578 5579 5581 5583 5585 5586 5586 5588 5593 5597 5600 5600 5599 5601 5601 5599 5600 5603 5604 5606 5608 5609 5609 5609 5610 5613 5616 5617 5615 5613 5615 5617 5617 5619 5621 5622 5622 5624 5625 5625 5626 5626 5625 5625 5626 5624 5624 5624 5619 5621 5626 5623 5621 5623 5620 5623 5635 5638 5633 5631 5628 5623 5621 5621 5619 5614 5611 5609 5610 5613 5611 5607 5604 5604 5604 5603 5604 5603 5601 5598 5596 5594 5593 5593 5590 5588